QPF
0.05 0.05 0.05 0.05 0.04 0.04 0.05 0.07 0.07 0.07 0.06 0.05 0.03 0.02 0.02 0.03 0.03 0.02 0.02 0.02 0.01 0.01 0.01 0.01 0.04 0.07 0.04 0.05 0.04 0.02 0.02 0.02 0.01 0.01 0.01 0.02 0.02 0.03
0.06 0.05 0.04 0.04 0.06 0.06 0.05 0.06 0.08 0.08 0.07 0.05 0.05 0.03 0.03 0.02 0.02 0.02 0.03 0.03 0.03 0.02 0.01 0.02 0.05 0.06 0.04 0.04 0.04 0.04 0.03 0.03 0.02 0.01 0.01 0.01 0.02 0.02
0.03 0.02 0.02 0.04 0.05 0.06 0.05 0.07 0.07 0.07 0.08 0.06 0.05 0.04 0.04 0.04 0.04 0.04 0.04 0.04 0.04 0.03 0.01 0.02 0.06 0.08 0.05 0.04 0.05 0.04 0.03 0.03 0.02 0.01 0.01 0.01 0.02 0.02
0.02 0.02 0.02 0.02 0.04 0.04 0.05 0.06 0.07 0.07 0.07 0.07 0.07 0.06 0.06 0.05 0.05 0.04 0.04 0.06 0.07 0.06 0.03 0.04 0.06 0.06 0.06 0.05 0.04 0.04 0.03 0.03 0.02 0.01 0.00 0.01 0.02 0.02
0.01 0.01 0.01 0.02 0.03 0.04 0.04 0.05 0.05 0.05 0.07 0.07 0.06 0.07 0.07 0.06 0.06 0.05 0.03 0.05 0.05 0.08 0.09 0.10 0.08 0.07 0.07 0.05 0.04 0.04 0.04 0.02 0.01 0.01 0.00 0.01 0.01 0.02
0.01 0.01 0.01 0.01 0.02 0.03 0.03 0.04 0.04 0.06 0.08 0.07 0.06 0.06 0.06 0.07 0.07 0.06 0.05 0.05 0.04 0.04 0.07 0.05 0.06 0.08 0.07 0.05 0.05 0.04 0.03 0.02 0.01 0.00 0.00 0.00 0.00 0.01
0.01 0.01 0.01 0.00 0.01 0.01 0.01 0.03 0.03 0.05 0.06 0.07 0.08 0.08 0.07 0.07 0.05 0.05 0.05 0.05 0.05 0.05 0.05 0.04 0.05 0.06 0.06 0.05 0.05 0.04 0.03 0.02 0.01 0.00 0.00 0.00 0.00 0.00
0.01 0.01 0.01 0.00 0.00 0.00 0.00 0.01 0.01 0.02 0.04 0.06 0.07 0.07 0.07 0.06 0.06 0.06 0.07 0.07 0.06 0.06 0.07 0.07 0.07 0.07 0.05 0.03 0.03 0.02 0.01 0.01 0.01 0.00 0.00 0.00 0.00 0.00
0.02 0.02 0.01 0.00 0.00 0.01 0.01 0.01 0.01 0.01 0.01 0.03 0.05 0.05 0.05 0.06 0.06 0.07 0.07 0.06 0.06 0.07 0.07 0.07 0.08 0.07 0.04 0.03 0.02 0.02 0.01 0.01 0.01 0.01 0.01 0.00 0.00 0.01
0.02 0.01 0.01 0.01 0.01 0.00 0.01 0.02 0.03 0.02 0.01 0.01 0.03 0.04 0.05 0.05 0.06 0.07 0.08 0.09 0.09 0.08 0.08 0.07 0.07 0.06 0.05 0.04 0.04 0.04 0.03 0.03 0.03 0.03 0.03 0.02 0.02 0.02
0.01 0.01 0.01 0.01 0.01 0.01 0.01 0.04 0.05 0.04 0.02 0.01 0.01 0.03 0.04 0.03 0.04 0.06 0.08 0.09 0.08 0.07 0.08 0.09 0.08 0.08 0.06 0.05 0.04 0.03 0.03 0.02 0.02 0.03 0.04 0.05 0.05 0.06
0.02 0.01 0.01 0.01 0.01 0.01 0.02 0.04 0.05 0.05 0.04 0.03 0.02 0.03 0.03 0.03 0.02 0.04 0.06 0.07 0.08 0.08 0.08 0.09 0.08 0.08 0.07 0.06 0.05 0.03 0.03 0.03 0.02 0.02 0.03 0.04 0.05 0.06
0.01 0.01 0.02 0.01 0.02 0.03 0.03 0.04 0.04 0.04 0.05 0.06 0.04 0.04 0.04 0.04 0.04 0.05 0.06 0.08 0.09 0.08 0.08 0.10 0.09 0.08 0.08 0.09 0.08 0.08 0.07 0.06 0.05 0.04 0.04 0.04 0.05 0.05
0.02 0.03 0.05 0.05 0.05 0.04 0.03 0.02 0.01 0.02 0.04 0.06 0.06 0.06 0.05 0.05 0.05 0.06 0.07 0.09 0.11 0.11 0.10 0.10 0.09 0.09 0.10 0.10 0.09 0.08 0.09 0.09 0.09 0.09 0.07 0.05 0.05 0.05
0.03 0.03 0.04 0.05 0.05 0.03 0.02 0.01 0.01 0.02 0.04 0.05 0.06 0.07 0.07 0.07 0.07 0.08 0.08 0.08 0.09 0.08 0.07 0.07 0.07 0.08 0.10 0.09 0.08 0.08 0.07 0.06 0.06 0.07 0.09 0.09 0.09 0.07
0.05 0.05 0.04 0.05 0.06 0.05 0.04 0.02 0.02 0.03 0.04 0.05 0.06 0.07 0.08 0.08 0.08 0.08 0.08 0.08 0.08 0.07 0.06 0.06 0.07 0.07 0.07 0.06 0.06 0.05 0.06 0.05 0.05 0.05 0.05 0.06 0.06 0.06
0.05 0.05 0.05 0.05 0.06 0.07 0.08 0.06 0.05 0.05 0.06 0.07 0.07 0.09 0.09 0.08 0.09 0.09 0.08 0.07 0.07 0.07 0.07 0.07 0.06 0.05 0.05 0.05 0.05 0.04 0.05 0.04 0.05 0.06 0.06 0.05 0.03 0.03
0.05 0.06 0.06 0.06 0.06 0.06 0.09 0.11 0.09 0.07 0.07 0.07 0.06 0.07 0.08 0.09 0.09 0.09 0.07 0.07 0.06 0.05 0.04 0.05 0.05 0.04 0.04 0.04 0.05 0.05 0.04 0.03 0.04 0.06 0.07 0.07 0.05 0.04
0.04 0.05 0.06 0.06 0.05 0.05 0.07 0.08 0.08 0.06 0.05 0.04 0.04 0.05 0.05 0.05 0.05 0.06 0.06 0.06 0.06 0.06 0.05 0.05 0.05 0.04 0.03 0.02 0.03 0.03 0.03 0.03 0.03 0.04 0.04 0.04 0.04 0.03
0.03 0.04 0.05 0.06 0.06 0.07 0.07 0.06 0.06 0.05 0.04 0.04 0.04 0.05 0.05 0.04 0.03 0.03 0.04 0.05 0.06 0.05 0.04 0.03 0.03 0.03 0.04 0.04 0.04 0.03 0.02 0.03 0.03 0.03 0.03 0.03 0.03 0.03
0.04 0.05 0.06 0.08 0.06 0.04 0.03 0.04 0.05 0.05 0.05 0.04 0.03 0.04 0.05 0.05 0.04 0.03 0.03 0.04 0.04 0.04 0.03 0.03 0.02 0.03 0.03 0.04 0.04 0.03 0.02 0.02 0.02 0.03 0.04 0.04 0.04 0.04
0.04 0.05 0.05 0.04 0.04 0.03 0.03 0.03 0.03 0.04 0.04 0.04 0.03 0.04 0.04 0.05 0.06 0.05 0.04 0.05 0.05 0.05 0.04 0.03 0.02 0.03 0.03 0.03 0.03 0.03 0.02 0.02 0.02 0.03 0.05 0.05 0.06 0.06
0.03 0.03 0.03 0.03 0.03 0.03 0.03 0.04 0.04 0.03 0.04 0.04 0.02 0.02 0.02 0.03 0.04 0.04 0.05 0.05 0.05 0.06 0.05 0.04 0.04 0.05 0.05 0.04 0.04 0.03 0.03 0.04 0.04 0.04 0.05 0.05 0.04 0.04
MSLP
1012.39 1012.47 1012.57 1012.66 1012.70 1012.66 1012.51 1012.27 1011.92 1011.51 1011.06 1010.62 1010.21 1009.87 1009.62 1009.46 1009.40 1009.42 1009.53 1009.69 1009.92 1010.21 1010.56 1010.96 1011.43 1011.97 1012.57 1013.24 1013.97 1014.74 1015.54 1016.33 1017.10 1017.80 1018.43 1018.96 1019.38 1019.69
1012.09 1012.12 1012.18 1012.22 1012.23 1012.18 1012.04 1011.82 1011.53 1011.17 1010.79 1010.41 1010.07 1009.79 1009.58 1009.46 1009.41 1009.44 1009.53 1009.68 1009.89 1010.14 1010.45 1010.83 1011.28 1011.81 1012.42 1013.11 1013.87 1014.68 1015.51 1016.34 1017.13 1017.86 1018.49 1019.01 1019.41 1019.71
1011.83 1011.81 1011.81 1011.80 1011.78 1011.70 1011.57 1011.37 1011.12 1010.82 1010.51 1010.21 1009.95 1009.74 1009.60 1009.53 1009.53 1009.59 1009.70 1009.85 1010.04 1010.28 1010.57 1010.92 1011.35 1011.86 1012.46 1013.15 1013.92 1014.73 1015.57 1016.40 1017.19 1017.90 1018.51 1019.01 1019.40 1019.68
1011.61 1011.55 1011.50 1011.44 1011.38 1011.28 1011.15 1010.97 1010.76 1010.52 1010.28 1010.06 1009.88 1009.76 1009.70 1009.69 1009.75 1009.85 1009.99 1010.16 1010.37 1010.61 1010.89 1011.23 1011.64 1012.12 1012.70 1013.36 1014.10 1014.89 1015.69 1016.49 1017.24 1017.92 1018.50 1018.97 1019.33 1019.60
1011.45 1011.34 1011.25 1011.16 1011.06 1010.95 1010.81 1010.66 1010.48 1010.30 1010.13 1009.98 1009.89 1009.84 1009.85 1009.92 1010.04 1010.20 1010.39 1010.60 1010.83 1011.08 1011.37 1011.70 1012.09 1012.55 1013.09 1013.70 1014.38 1015.11 1015.85 1016.59 1017.29 1017.91 1018.45 1018.89 1019.23 1019.49
1011.32 1011.19 1011.06 1010.95 1010.83 1010.71 1010.59 1010.45 1010.31 1010.18 1010.07 1009.99 1009.97 1009.99 1010.07 1010.21 1010.39 1010.60 1010.84 1011.10 1011.36 1011.64 1011.94 1012.27 1012.64 1013.06 1013.55 1014.10 1014.71 1015.35 1016.02 1016.67 1017.30 1017.86 1018.36 1018.76 1019.09 1019.35
1011.22 1011.07 1010.93 1010.81 1010.69 1010.58 1010.47 1010.37 1010.27 1010.18 1010.12 1010.10 1010.13 1010.21 1010.35 1010.54 1010.77 1011.03 1011.31 1011.61 1011.90 1012.20 1012.51 1012.83 1013.19 1013.57 1014.01 1014.49 1015.01 1015.57 1016.14 1016.72 1017.27 1017.77 1018.22 1018.60 1018.92 1019.18
1011.14 1010.99 1010.85 1010.74 1010.64 1010.55 1010.47 1010.40 1010.34 1010.30 1010.29 1010.32 1010.39 1010.51 1010.69 1010.91 1011.17 1011.46 1011.76 1012.08 1012.39 1012.70 1013.01 1013.32 1013.65 1014.00 1014.38 1014.79 1015.24 1015.72 1016.21 1016.70 1017.19 1017.64 1018.05 1018.42 1018.73 1019.01
1011.08 1010.94 1010.83 1010.74 1010.66 1010.61 1010.57 1010.55 1010.53 1010.54 1010.57 1010.63 1010.74 1010.88 1011.07 1011.30 1011.57 1011.86 1012.16 1012.47 1012.77 1013.08 1013.37 1013.67 1013.96 1014.28 1014.61 1014.97 1015.35 1015.76 1016.19 1016.62 1017.05 1017.47 1017.86 1018.22 1018.53 1018.81
1011.06 1010.95 1010.87 1010.81 1010.78 1010.77 1010.77 1010.79 1010.83 1010.87 1010.94 1011.03 1011.15 1011.31 1011.49 1011.71 1011.95 1012.21 1012.48 1012.75 1013.02 1013.29 1013.55 1013.82 1014.08 1014.36 1014.65 1014.97 1015.31 1015.68 1016.06 1016.46 1016.86 1017.26 1017.64 1017.99 1018.30 1018.58
1011.08 1011.02 1010.98 1010.97 1010.98 1011.01 1011.05 1011.11 1011.18 1011.26 1011.36 1011.47 1011.59 1011.74 1011.90 1012.09 1012.28 1012.49 1012.70 1012.91 1013.12 1013.33 1013.54 1013.76 1013.99 1014.23 1014.50 1014.79 1015.11 1015.46 1015.83 1016.21 1016.61 1016.99 1017.36 1017.71 1018.01 1018.27
1011.17 1011.16 1011.17 1011.19 1011.24 1011.29 1011.37 1011.45 1011.54 1011.65 1011.75 1011.87 1011.99 1012.12 1012.25 1012.39 1012.52 1012.66 1012.79 1012.93 1013.06 1013.20 1013.35 1013.52 1013.71 1013.92 1014.17 1014.45 1014.77 1015.11 1015.49 1015.87 1016.27 1016.65 1017.01 1017.35 1017.63 1017.86
1011.30 1011.34 1011.39 1011.44 1011.50 1011.57 1011.65 1011.74 1011.84 1011.94 1012.05 1012.16 1012.27 1012.37 1012.47 1012.56 1012.63 1012.69 1012.75 1012.80 1012.85 1012.92 1013.01 1013.12 1013.28 1013.47 1013.70 1013.98 1014.30 1014.66 1015.04 1015.43 1015.83 1016.21 1016.56 1016.87 1017.12 1017.31
1011.44 1011.53 1011.60 1011.65 1011.71 1011.77 1011.83 1011.90 1011.98 1012.07 1012.17 1012.27 1012.36 1012.44 1012.50 1012.54 1012.56 1012.56 1012.55 1012.53 1012.52 1012.52 1012.56 1012.63 1012.75 1012.92 1013.15 1013.43 1013.75 1014.11 1014.50 1014.89 1015.28 1015.64 1015.97 1016.24 1016.45 1016.59
1011.54 1011.64 1011.71 1011.75 1011.78 1011.80 1011.83 1011.86 1011.91 1011.98 1012.05 1012.13 1012.21 1012.27 1012.31 1012.33 1012.32 1012.28 1012.22 1012.16 1012.10 1012.06 1012.06 1012.10 1012.19 1012.35 1012.57 1012.84 1013.16 1013.51 1013.88 1014.26 1014.63 1014.96 1015.24 1015.47 1015.62 1015.71
1011.53 1011.62 1011.67 1011.68 1011.66 1011.63 1011.61 1011.60 1011.61 1011.64 1011.69 1011.76 1011.82 1011.88 1011.92 1011.93 1011.91 1011.86 1011.79 1011.71 1011.64 1011.59 1011.57 1011.59 1011.68 1011.82 1012.01 1012.27 1012.56 1012.89 1013.23 1013.57 1013.88 1014.16 1014.39 1014.56 1014.66 1014.69
1011.35 1011.41 1011.42 1011.39 1011.32 1011.24 1011.17 1011.12 1011.10 1011.11 1011.14 1011.20 1011.26 1011.32 1011.37 1011.39 1011.39 1011.37 1011.32 1011.26 1011.20 1011.16 1011.15 1011.18 1011.25 1011.37 1011.55 1011.76 1012.02 1012.29 1012.57 1012.84 1013.09 1013.30 1013.46 1013.57 1013.60 1013.59
1010.97 1011.00 1010.97 1010.89 1010.79 1010.68 1010.59 1010.51 1010.47 1010.47 1010.49 1010.55 1010.62 1010.70 1010.77 1010.82 1010.86 1010.87 1010.87 1010.85 1010.84 1010.83 1010.84 1010.88 1010.95 1011.05 1011.19 1011.36 1011.54 1011.74 1011.94 1012.12 1012.29 1012.42 1012.50 1012.54 1012.54 1012.48
1010.43 1010.42 1010.36 1010.28 1010.17 1010.06 1009.96 1009.90 1009.86 1009.86 1009.89 1009.96 1010.04 1010.13 1010.23 1010.31 1010.39 1010.45 1010.49 1010.53 1010.56 1010.60 1010.64 1010.69 1010.76 1010.84 1010.93 1011.04 1011.15 1011.26 1011.36 1011.45 1011.52 1011.57 1011.58 1011.57 1011.52 1011.44
1009.78 1009.76 1009.71 1009.64 1009.57 1009.50 1009.44 1009.41 1009.40 1009.42 1009.47 1009.54 1009.63 1009.73 1009.83 1009.93 1010.03 1010.12 1010.21 1010.29 1010.37 1010.44 1010.51 1010.58 1010.64 1010.69 1010.74 1010.78 1010.81 1010.83 1010.84 1010.83 1010.81 1010.78 1010.74 1010.68 1010.60 1010.52
1009.12 1009.13 1009.13 1009.12 1009.12 1009.12 1009.14 1009.17 1009.21 1009.26 1009.32 1009.39 1009.47 1009.55 1009.63 1009.72 1009.82 1009.92 1010.02 1010.12 1010.22 1010.32 1010.40 1010.47 1010.52 1010.55 1010.56 1010.53 1010.49 1010.43 1010.35 1010.27 1010.18 1010.09 1009.99 1009.91 1009.82 1009.74
1008.58 1008.65 1008.73 1008.83 1008.93 1009.04 1009.15 1009.25 1009.35 1009.42 1009.49 1009.53 1009.57 1009.60 1009.63 1009.67 1009.72 1009.79 1009.86 1009.96 1010.05 1010.15 1010.23 1010.30 1010.33 1010.34 1010.30 1010.24 1010.14 1010.01 1009.88 1009.74 1009.60 1009.47 1009.35 1009.25 1009.16 1009.09
1008.24 1008.42 1008.61 1008.83 1009.06 1009.29 1009.50 1009.67 1009.81 1009.89 1009.93 1009.93 1009.90 1009.84 1009.79 1009.73 1009.70 1009.69 1009.71 1009.76 1009.82 1009.89 1009.96 1010.00 1010.02 1010.00 1009.94 1009.84 1009.71 1009.56 1009.39 1009.22 1009.05 1008.91 1008.79 1008.68 1008.60 1008.53
Thickness
5713 5712 5711 5712 5711 5710 5708 5703 5695 5690 5691 5698 5701 5705 5704 5702 5699 5697 5697 5695 5693 5692 5690 5688 5686 5684 5682 5680 5677 5674 5671 5669 5667 5665 5663 5661 5659 5657
5710 5709 5709 5709 5709 5707 5705 5703 5701 5695 5690 5695 5698 5700 5700 5700 5697 5696 5695 5693 5692 5691 5689 5687 5685 5683 5681 5678 5675 5672 5670 5667 5665 5662 5660 5658 5656 5654
5708 5707 5706 5706 5704 5704 5703 5701 5698 5695 5689 5692 5696 5697 5696 5695 5693 5693 5692 5692 5690 5689 5688 5686 5683 5681 5679 5676 5674 5670 5668 5665 5663 5660 5658 5655 5653 5651
5706 5705 5704 5704 5702 5701 5699 5697 5696 5695 5690 5687 5690 5691 5692 5692 5691 5690 5691 5691 5690 5688 5686 5684 5681 5679 5677 5674 5671 5668 5665 5663 5660 5658 5656 5653 5651 5649
5705 5703 5702 5701 5698 5697 5696 5694 5694 5694 5691 5688 5687 5688 5688 5689 5687 5687 5688 5688 5689 5687 5684 5682 5679 5677 5674 5672 5669 5666 5663 5661 5658 5656 5654 5651 5649 5647
5704 5702 5701 5700 5697 5695 5693 5692 5691 5688 5687 5685 5684 5684 5684 5685 5684 5681 5681 5683 5684 5684 5681 5679 5676 5674 5672 5669 5667 5664 5662 5659 5656 5654 5652 5649 5647 5645
5701 5700 5700 5698 5696 5694 5692 5689 5687 5685 5683 5681 5680 5680 5680 5679 5678 5679 5677 5678 5679 5680 5677 5676 5673 5670 5668 5666 5664 5662 5660 5658 5655 5653 5650 5648 5646 5643
5697 5697 5697 5696 5694 5692 5690 5687 5685 5682 5680 5677 5677 5676 5676 5677 5677 5676 5674 5672 5671 5676 5673 5671 5671 5668 5667 5665 5664 5661 5659 5656 5654 5651 5649 5646 5644 5641
5695 5694 5694 5695 5692 5690 5687 5684 5682 5680 5678 5676 5674 5674 5674 5675 5674 5671 5670 5669 5668 5671 5669 5666 5668 5666 5665 5664 5662 5660 5657 5654 5652 5649 5647 5644 5642 5638
5693 5692 5690 5690 5689 5687 5685 5682 5681 5680 5677 5675 5675 5675 5675 5674 5672 5670 5669 5668 5668 5669 5667 5662 5663 5663 5664 5662 5660 5657 5655 5652 5649 5647 5645 5642 5639 5636
5690 5690 5689 5687 5685 5683 5682 5679 5678 5677 5677 5676 5674 5673 5672 5671 5669 5666 5664 5662 5661 5663 5665 5660 5659 5659 5659 5658 5656 5654 5652 5649 5647 5644 5641 5638 5635 5632
5686 5687 5685 5684 5682 5680 5678 5676 5674 5674 5674 5672 5670 5670 5669 5669 5667 5664 5663 5659 5658 5657 5661 5658 5655 5654 5651 5654 5652 5650 5647 5645 5643 5641 5638 5635 5631 5627
5682 5682 5682 5680 5678 5675 5674 5673 5671 5669 5669 5668 5668 5668 5668 5667 5666 5664 5662 5659 5656 5655 5658 5655 5652 5650 5647 5647 5648 5646 5644 5642 5640 5637 5634 5631 5627 5623
5677 5678 5677 5674 5672 5670 5669 5669 5668 5665 5665 5665 5664 5665 5665 5665 5665 5664 5662 5660 5659 5657 5656 5654 5650 5647 5644 5641 5641 5642 5641 5639 5637 5634 5631 5628 5624 5621
5671 5671 5670 5668 5666 5666 5665 5665 5663 5662 5662 5661 5661 5663 5664 5664 5663 5661 5660 5658 5656 5655 5654 5652 5649 5646 5642 5639 5637 5637 5636 5635 5634 5631 5628 5625 5621 5618
5663 5663 5663 5662 5662 5662 5661 5660 5660 5660 5660 5660 5660 5662 5662 5660 5658 5658 5655 5653 5650 5650 5650 5649 5647 5644 5639 5638 5636 5634 5633 5631 5631 5628 5626 5623 5620 5617
5658 5657 5658 5658 5658 5659 5659 5659 5659 5658 5657 5657 5657 5657 5657 5656 5655 5654 5652 5649 5646 5644 5644 5644 5644 5641 5639 5635 5632 5631 5630 5628 5627 5625 5622 5619 5618 5616
5652 5652 5653 5654 5654 5654 5654 5654 5655 5656 5656 5656 5655 5654 5653 5652 5651 5651 5648 5645 5642 5641 5640 5639 5638 5635 5632 5632 5630 5628 5626 5624 5624 5622 5619 5615 5614 5614
5646 5648 5649 5649 5650 5650 5650 5650 5650 5652 5652 5652 5651 5651 5650 5648 5647 5645 5644 5641 5639 5638 5637 5636 5634 5630 5626 5624 5627 5626 5623 5621 5619 5617 5615 5613 5611 5612
5643 5644 5644 5645 5645 5646 5646 5646 5646 5646 5646 5646 5646 5646 5645 5643 5641 5640 5639 5637 5635 5634 5633 5632 5630 5628 5624 5623 5622 5623 5621 5618 5616 5613 5612 5611 5609 5609
5641 5641 5641 5641 5641 5641 5641 5641 5640 5640 5640 5639 5639 5639 5639 5637 5637 5636 5635 5633 5631 5630 5628 5627 5628 5627 5624 5622 5618 5618 5617 5616 5615 5611 5609 5606 5605 5603
5638 5638 5638 5637 5636 5637 5636 5635 5634 5633 5633 5632 5632 5632 5631 5631 5630 5631 5630 5628 5627 5626 5625 5624 5624 5622 5618 5615 5613 5613 5613 5612 5611 5609 5606 5604 5601 5599
5634 5633 5633 5632 5632 5631 5631 5630 5629 5628 5627 5626 5626 5625 5625 5625 5625 5625 5624 5624 5623 5621 5620 5618 5617 5615 5614 5612 5610 5609 5609 5607 5606 5604 5603 5602 5600 5599